[[[{"header":{"parameterUnit":"kt","parameterCategory":2,"dx":1,"dy":1,"la1":30.253999710083008,"la2":30.299108505249023,"lo1":-89.0895004272461,"lo2":-89.04439544677734,"nx":28,"ny":28,"refTime":"2022-10-18T21:00:00:Z","depth":0,"parameterNumber":1,"parameterNumberName":"U-component_of_WINDS"},"data":[3.2516,3.2482,3.2497,3.2466,3.2474,3.2455,3.2453,3.2451,3.2455,3.2433,3.2423,3.2435,3.2444,3.2435,3.2425,3.243,3.2424,3.24,3.241,3.2503,3.2517,3.253,3.2538,3.2399,3.2399,3.2312,3.2311,3.231,3.2581,3.2589,3.2577,3.2576,3.2566,3.2598,3.26,3.2588,3.257,3.2574,3.2565,3.2547,3.2535,3.2552,3.2543,3.2526,3.254,3.2522,3.2523,3.2523,3.2623,3.2632,3.2511,3.2511,3.2511,3.2511,3.2511,3.2511,3.2704,3.2683,3.2692,3.2679,3.2683,3.2682,3.2664,3.268,3.2668,3.2661,3.2682,3.2662,3.2668,3.2665,3.2667,3.2651,3.2674,3.2659,3.2655,3.265,3.2642,3.2763,3.2651,3.2651,3.2652,3.2652,3.2652,0,3.2798,3.2812,3.2802,3.2797,3.2788,3.2785,3.2785,3.2775,3.2812,3.28,3.2785,3.2779,3.2767,3.2754,3.2749,3.2755,3.2785,3.2791,3.2781,3.2768,3.2758,3.2761,3.2921,3.2794,3.2795,3.2796,3.2797,3.2797,3.2921,3.2895,3.2913,3.2903,3.2908,3.2892,3.2886,3.292,3.2912,3.2917,3.2897,3.2885,3.2877,3.285,3.2868,3.2858,3.2873,3.2822,3.2871,3.2861,3.2869,3.287,3.2866,3.2811,3.2809,3.2808,3.2806,0,3.2988,3.3015,3.2981,3.3,3.3005,3.2976,3.2992,3.2973,3.2991,3.2967,3.2963,3.299,3.2974,3.3001,3.2989,3.3003,3.2954,3.2969,3.2951,3.2955,3.2911,3.2914,3.2767,3.2749,3.2895,3.2894,3.2893,0,3.3103,3.3068,3.3109,3.3088,3.3051,3.3086,3.3048,3.306,3.3067,3.3048,3.3089,3.307,3.3107,3.3092,3.3113,3.3078,3.3077,3.3085,3.309,3.308,3.3078,3.3074,3.308,3.3107,3.3107,3.3108,3.3109,0,3.3204,3.3186,3.3152,3.3152,3.317,3.3153,3.316,3.3168,3.3162,3.3158,3.3154,3.3147,3.3143,3.3137,3.3163,3.3196,3.3122,3.3172,3.313,3.3129,3.3111,3.3111,3.2976,3.3109,3.311,3.311,3.311,0,3.33,3.3296,3.3244,3.3259,3.3253,3.3231,3.3226,3.3214,3.322,3.3232,3.3229,3.3259,3.3232,3.328,3.3243,3.3277,3.327,3.3276,3.3273,3.3271,3.3322,3.324,3.3111,3.3097,3.327,3.3272,3.3273,0,3.3407,3.3361,3.3392,3.3341,3.3324,3.337,3.3347,3.3351,3.3365,3.3352,3.3368,3.3352,3.3394,3.3392,3.3371,3.3386,3.3342,3.3393,3.3371,3.337,3.3366,3.3248,3.3221,3.3137,3.3291,3.3289,3.3287,0,3.3493,3.3516,3.3505,3.3506,3.3519,3.3505,3.3477,3.347,3.346,3.3461,3.3438,3.3418,3.3448,3.3445,3.3469,3.3445,3.3373,3.348,3.348,3.3458,3.3303,3.3277,3.3262,3.3394,3.3392,3.339,3.3301,0,3.3629,3.361,3.3582,3.3584,3.3578,3.3549,3.3578,3.3567,3.3591,3.3607,3.3574,3.3585,3.3577,3.3569,3.3592,3.3529,3.3544,3.3576,3.3622,3.3545,3.3516,3.3505,3.3662,3.3664,3.3665,3.3666,0,0,3.3724,3.3698,3.3732,3.3708,3.3704,3.3753,3.3719,3.3721,3.3724,3.3721,3.3747,3.372,3.3727,3.3684,3.3663,3.366,3.3651,3.3677,3.3582,3.3572,3.3564,3.3532,3.352,3.3668,3.3669,3.3669,3.367,0,3.3779,3.3787,3.3754,3.3758,3.3766,3.3785,3.3776,3.3792,3.3801,3.377,3.381,3.3794,3.3771,3.3773,3.3771,3.3684,3.3713,3.3679,3.3622,3.3594,3.3583,3.3573,3.354,3.3528,3.3673,3.3673,3.3673,0,3.3868,3.388,3.3868,3.3864,3.3869,3.385,3.3907,3.3885,3.3871,3.3925,3.3893,3.3903,3.3908,3.3865,3.3846,3.387,3.3768,3.3806,3.3799,3.3797,3.3771,3.3758,3.3746,3.3904,3.3904,3.3905,0,0,3.3911,3.3895,3.3919,3.3878,3.3878,3.3906,3.3899,3.3922,3.3927,3.3928,3.3941,3.3944,3.3931,3.3922,3.3911,3.386,3.3863,3.3833,3.3823,3.3814,3.3806,3.3779,3.3765,3.3908,3.3908,3.3908,0,0,3.3932,3.3958,3.3982,3.3938,3.3941,3.3961,3.3934,3.3963,3.3957,3.3964,3.4,3.4003,3.3963,3.3971,3.4002,3.3928,3.3974,3.3967,3.3924,3.3911,3.39,3.3898,3.406,0,0,0,0,0,3.4004,3.3955,3.3976,3.3973,3.3968,3.395,3.3949,3.3979,3.4011,3.3989,3.4004,3.4037,3.3995,3.4024,3.402,3.3984,3.3941,3.3935,3.393,3.3863,3.3848,3.3836,0,0,0,0,0,0,3.4003,3.3999,3.3978,3.3995,3.3994,3.3952,3.4012,3.4019,3.4014,3.4021,3.4033,3.4038,3.4062,3.4028,3.4024,3.3989,3.4061,3.3939,3.3934,3.3929,3.3858,3.3846,3.3836,0,0,0,0,0,3.4002,3.3999,3.3984,3.3996,3.3995,3.4023,3.4014,3.402,3.4017,3.404,3.4046,3.404,3.4061,3.4059,3.4025,3.399,3.4064,3.4063,3.3935,3.3931,3.3928,3.3852,0,0,0,0,0,0,3.4002,3.4005,3.3984,3.3985,3.4017,3.4026,3.4029,3.4021,3.4038,3.4043,3.4049,3.4054,3.4059,3.4058,3.4057,3.3989,3.4067,3.4065,3.4064,3.3932,3.3929,3.3927,0,0,0,0,0,0,3.4006,3.4005,3.3984,3.4009,3.4013,3.4029,3.4031,3.4007,3.4037,3.4045,3.405,3.4051,3.406,3.4057,3.4056,3.4017,3.4069,3.4067,3.4066,3.4065,3.393,3.3927,0,0,0,0,0,0,3.4006,3.4005,3.4009,3.4012,3.4015,3.4027,3.4008,3.4001,3.4059,3.4043,3.4065,3.4067,3.4058,3.4058,3.4055,3.4016,3.4017,3.4069,3.4068,3.4067,3.4066,0,0,0,0,0,0,0,3.4006,3.4007,3.3979,3.4014,3.4018,3.3993,3.3993,3.3993,3.4059,3.4062,3.4064,3.4066,3.4077,3.4076,3.4074,3.4016,0,0,3.4069,3.4068,0,0,0,0,0,0,0,0,3.4009,3.4008,3.3979,3.3979,3.3979,3.3993,3.3993,3.3993,3.406,3.4062,3.4064,3.4065,3.4077,3.4076,3.4074,0,0,0,0,0,0,0,0,0,0,0,0,0,0,0,3.3979,3.3979,0,3.3993,3.3993,3.3993,3.406,3.4062,3.4063,3.4065,3.4077,3.4076,3.4074,0,0,0,0,0,0,0,0,0,0,0,0,0,0,0,0,0,0,0,0,0,0,0,0,0,0,0,0,0,0,0,0,0,0,0,0,0,0,0,0,0,0,0,0,0,0,0,0,0,0,0,0,0,0,0,0,0,0,0,0,0,0,0,0,0,0,0,0,0]}],[{"header":{"parameterUnit":"kt","parameterCategory":2,"dx":1,"dy":1,"la1":30.253999710083008,"la2":30.299108505249023,"lo1":-89.0895004272461,"lo2":-89.04439544677734,"nx":28,"ny":28,"refTime":"2022-10-18T21:00:00:Z","depth":0,"parameterNumber":2,"parameterNumberName":"V-component_of_WINDS"},"data":[-0.0536,-0.0597,-0.0601,-0.0673,-0.0688,-0.0739,-0.0758,-0.0784,-0.0805,-0.0867,-0.0904,-0.0914,-0.0939,-0.0984,-0.1025,-0.1029,-0.1048,-0.1068,-0.107,-0.0976,-0.0963,-0.0951,-0.0938,-0.1071,-0.1071,-0.1168,-0.1169,-0.117,-0.047,-0.0486,-0.0524,-0.0563,-0.0597,-0.058,-0.0611,-0.0641,-0.0687,-0.0713,-0.0748,-0.0804,-0.0848,-0.0865,-0.0909,-0.094,-0.0936,-0.0952,-0.0952,-0.0957,-0.0855,-0.0841,-0.0955,-0.0955,-0.0955,-0.0955,-0.0955,-0.0955,-0.0352,-0.0388,-0.0413,-0.0455,-0.0475,-0.0502,-0.0538,-0.0549,-0.0587,-0.0632,-0.0628,-0.068,-0.0708,-0.0762,-0.0781,-0.0824,-0.0807,-0.0826,-0.0832,-0.0838,-0.0845,-0.071,-0.083,-0.083,-0.083,-0.083,-0.0829,0,-0.0267,-0.0267,-0.0303,-0.0341,-0.0371,-0.0401,-0.0429,-0.0451,-0.0452,-0.0484,-0.053,-0.0558,-0.0613,-0.0658,-0.0699,-0.0715,-0.0704,-0.0701,-0.0716,-0.0721,-0.0721,-0.0726,-0.0564,-0.0699,-0.0698,-0.0697,-0.0696,-0.0696,-0.0152,-0.0192,-0.0219,-0.0244,-0.026,-0.03,-0.0325,-0.0323,-0.035,-0.0385,-0.0417,-0.0461,-0.0497,-0.0571,-0.0585,-0.0627,-0.0622,-0.0674,-0.0628,-0.0631,-0.0628,-0.0627,-0.0633,-0.0684,-0.0685,-0.0687,-0.0688,0,-0.0088,-0.0091,-0.0154,-0.0177,-0.0184,-0.0227,-0.0247,-0.0283,-0.0289,-0.034,-0.0352,-0.0363,-0.0408,-0.0414,-0.0466,-0.0468,-0.0544,-0.0536,-0.0536,-0.0536,-0.0586,-0.0583,-0.0738,-0.076,-0.0618,-0.0619,-0.0621,0,0.0008,-0.0045,-0.0048,-0.0084,-0.0143,-0.0139,-0.0198,-0.0209,-0.0231,-0.0271,-0.0256,-0.0294,-0.0294,-0.0333,-0.0336,-0.0398,-0.0406,-0.0413,-0.0414,-0.0417,-0.0417,-0.0435,-0.043,-0.0408,-0.0408,-0.0407,-0.0406,0,0.0106,0.0045,-0.0013,-0.0028,-0.0058,-0.0085,-0.0099,-0.0123,-0.0148,-0.018,-0.0197,-0.0234,-0.0256,-0.0286,-0.029,-0.0259,-0.0364,-0.0323,-0.0371,-0.0372,-0.0397,-0.0396,-0.053,-0.0405,-0.0405,-0.0405,-0.0405,0,0.0181,0.015,0.0068,0.0043,0.0027,-0.0011,-0.0048,-0.0081,-0.0108,-0.0111,-0.0137,-0.0128,-0.0179,-0.0139,-0.0211,-0.0171,-0.0194,-0.0204,-0.0207,-0.0216,-0.0171,-0.0251,-0.0373,-0.0389,-0.022,-0.0218,-0.0217,0,0.0292,0.0209,0.0212,0.0134,0.0095,0.0113,0.0071,0.0048,0.004,0.0004,-0.0005,-0.0046,-0.0016,-0.003,-0.0064,-0.0076,-0.0128,-0.0069,-0.0126,-0.0128,-0.0123,-0.0235,-0.0255,-0.0345,-0.0197,-0.0199,-0.02,0,0.0377,0.0345,0.0331,0.0313,0.0285,0.0253,0.0205,0.0167,0.0142,0.0116,0.0074,0.0019,0.0038,0.0016,0.0019,-0.0017,-0.0093,0.0008,0.0007,-0.0014,-0.0185,-0.0204,-0.0219,-0.0083,-0.0085,-0.0087,-0.0184,0,0.0484,0.0444,0.0408,0.0371,0.0347,0.0299,0.0295,0.0269,0.0275,0.0268,0.0208,0.0189,0.0148,0.0132,0.0138,0.0059,0.007,0.0091,0.0128,0.0056,0.0023,0.0011,0.0176,0.0178,0.0178,0.0179,0,0,0.0589,0.0532,0.0538,0.0493,0.0472,0.0492,0.0441,0.0423,0.0386,0.037,0.0391,0.031,0.0293,0.022,0.0198,0.0183,0.0167,0.0193,0.0091,0.0081,0.0072,0.0038,0.0025,0.0181,0.0181,0.0181,0.0182,0,0.0627,0.0613,0.0564,0.0546,0.052,0.0516,0.0504,0.0481,0.0474,0.0418,0.0434,0.0398,0.0334,0.0313,0.0293,0.0203,0.0215,0.0192,0.0142,0.0101,0.009,0.008,0.0044,0.0031,0.0184,0.0184,0.0184,0,0.0708,0.0692,0.0669,0.0626,0.0608,0.0569,0.0607,0.0564,0.0534,0.0558,0.0501,0.0489,0.0462,0.0395,0.0365,0.0383,0.0259,0.0299,0.0293,0.0289,0.0248,0.0235,0.0223,0.0377,0.0377,0.0378,0,0,0.0741,0.0705,0.0688,0.0633,0.0622,0.0615,0.0594,0.0598,0.0574,0.0564,0.055,0.0525,0.0488,0.0463,0.0428,0.0357,0.0349,0.0323,0.0314,0.0307,0.0298,0.0255,0.0242,0.0381,0.0381,0.0381,0,0,0.0756,0.0735,0.0746,0.0683,0.066,0.0639,0.0605,0.0617,0.0586,0.0591,0.0594,0.0588,0.0526,0.0514,0.0549,0.044,0.0477,0.0469,0.045,0.0438,0.0429,0.0432,0.0584,0,0,0,0,0,0.0793,0.0738,0.0748,0.0737,0.0682,0.0634,0.0627,0.0629,0.0655,0.0627,0.0617,0.0633,0.0533,0.0564,0.0553,0.0512,0.0414,0.0408,0.0402,0.0361,0.0349,0.0339,0,0,0,0,0,0,0.0789,0.0775,0.075,0.0727,0.0715,0.0636,0.0679,0.0678,0.0658,0.0661,0.0635,0.0632,0.0633,0.0571,0.056,0.0522,0.0588,0.0412,0.0407,0.0402,0.0357,0.0347,0.0339,0,0,0,0,0,0.0785,0.0775,0.0686,0.0728,0.0717,0.0707,0.0681,0.0681,0.0665,0.0649,0.0648,0.0668,0.0632,0.0623,0.0564,0.0526,0.0595,0.0591,0.0408,0.0404,0.0401,0.0352,0,0,0,0,0,0,0.0783,0.0773,0.0684,0.0681,0.0749,0.0711,0.0706,0.0683,0.0654,0.0652,0.0683,0.0687,0.063,0.0623,0.0617,0.0528,0.0601,0.0597,0.0594,0.0405,0.0402,0.0399,0,0,0,0,0,0,0.0779,0.077,0.0683,0.071,0.0709,0.0715,0.071,0.0661,0.0653,0.069,0.0692,0.0685,0.064,0.0624,0.0618,0.0542,0.0606,0.0602,0.0599,0.0597,0.0403,0.04,0,0,0,0,0,0,0.0775,0.0768,0.0711,0.071,0.071,0.0674,0.0672,0.0615,0.0678,0.0691,0.0683,0.0686,0.064,0.0634,0.062,0.0545,0.0543,0.0606,0.0603,0.0601,0.06,0,0,0,0,0,0,0,0.0773,0.0822,0.0704,0.0711,0.0711,0.0651,0.065,0.0649,0.0678,0.0681,0.0683,0.0685,0.0628,0.0624,0.0619,0.0548,0,0,0.0606,0.0604,0,0,0,0,0,0,0,0,0.0826,0.0823,0.0704,0.0703,0.0702,0.0651,0.065,0.0649,0.0679,0.0681,0.0682,0.0684,0.0627,0.0623,0.062,0,0,0,0,0,0,0,0,0,0,0,0,0,0,0,0.0704,0.0703,0,0.0651,0.065,0.0649,0.0679,0.068,0.0682,0.0683,0.0626,0.0623,0.062,0,0,0,0,0,0,0,0,0,0,0,0,0,0,0,0,0,0,0,0,0,0,0,0,0,0,0,0,0,0,0,0,0,0,0,0,0,0,0,0,0,0,0,0,0,0,0,0,0,0,0,0,0,0,0,0,0,0,0,0,0,0,0,0,0,0,0,0,0]}]]]